�������l�o���
Date,Time,MP-1(��Sv/h),MP-2(��Sv/h),MP-3(��Sv/h),MP-4(��Sv/h),MP-5(��Sv/h),MP-6(��Sv/h),MP-7(��Sv/h),MP-8(��Sv/h),����,����(m/s),���J
2021/10/02,00:00,0.568,0.838,0.542,1.030,0.702,0.353,0.606,0.571,�k��,13.8,�L
2021/10/02,00:10,0.568,0.839,0.539,1.031,0.704,0.354,0.606,0.571,�k�k��,12.7,�L
2021/10/02,00:20,0.568,0.839,0.540,1.032,0.704,0.353,0.606,0.570,�k�k��,10.7,�L
2021/10/02,00:30,0.568,0.838,0.542,1.030,0.704,0.352,0.606,0.571,�k�k��,13.8,�L
2021/10/02,00:40,0.570,0.839,0.541,1.035,0.703,0.351,0.609,0.570,�k�k��,12.4,��
2021/10/02,00:50,0.569,0.840,0.541,1.031,0.703,0.349,0.608,0.572,�k�k��,13.3,��
2021/10/02,01:00,0.569,0.840,0.541,1.035,0.703,0.351,0.608,0.573,�k�k��,13.8,��
2021/10/02,01:10,0.568,0.840,0.542,1.035,0.705,0.353,0.608,0.571,�k�k��,13.3,��
2021/10/02,01:20,0.569,0.840,0.541,1.034,0.705,0.352,0.615,0.571,�k�k��,11.6,�L
2021/10/02,01:30,0.569,0.842,0.541,1.034,0.706,0.350,0.608,0.571,�k�k��,11.3,��
2021/10/02,01:40,0.568,0.841,0.541,1.035,0.707,0.351,0.609,0.572,�k��,10.2,��
2021/10/02,01:50,0.570,0.842,0.540,1.037,0.708,0.351,0.609,0.574,�k�k��,9.3,��
2021/10/02,02:00,0.571,0.842,0.539,1.039,0.709,0.352,0.608,0.573,�k��,9.2,��
2021/10/02,02:10,0.569,0.842,0.542,1.038,0.708,0.352,0.610,0.573,�k��,8.5,��
2021/10/02,02:20,0.569,0.842,0.542,1.037,0.708,0.353,0.611,0.573,�k��,10.7,��
2021/10/02,02:30,0.571,0.843,0.542,1.039,0.710,0.353,0.608,0.572,�k��,8.9,��
2021/10/02,02:40,0.570,0.846,0.542,1.040,0.709,0.353,0.609,0.575,�k��,9.4,��
2021/10/02,02:50,0.572,0.844,0.542,1.040,0.709,0.353,0.610,0.574,�k��,9.6,��
2021/10/02,03:00,0.572,0.846,0.543,1.040,0.710,0.353,0.610,0.574,�k��,9.3,��
2021/10/02,03:10,0.571,0.845,0.543,1.039,0.713,0.353,0.609,0.574,�k��,10.2,��
2021/10/02,03:20,0.572,0.846,0.544,1.040,0.714,0.354,0.610,0.575,�k��,10.4,��
2021/10/02,03:30,0.572,0.849,0.544,1.040,0.714,0.353,0.611,0.573,�k��,10.5,��
2021/10/02,03:40,0.573,0.847,0.545,1.039,0.712,0.353,0.611,0.573,�k��,10.0,��
2021/10/02,03:50,0.573,0.848,0.543,1.041,0.712,0.354,0.611,0.573,�k��,8.2,��
2021/10/02,04:00,0.573,0.847,0.544,1.041,0.714,0.353,0.610,0.574,�k��,8.1,��
2021/10/02,04:10,0.572,0.848,0.546,1.041,0.716,0.353,0.611,0.574,�k��,5.8,��
2021/10/02,04:20,0.574,0.849,0.545,1.041,0.713,0.352,0.611,0.574,�k��,6.2,��
2021/10/02,04:30,0.575,0.848,0.547,1.042,0.713,0.352,0.611,0.575,�k��,6.7,��
2021/10/02,04:40,0.573,0.849,0.545,1.041,0.715,0.354,0.611,0.576,�k��,5.2,��
2021/10/02,04:50,0.573,0.848,0.545,1.042,0.716,0.353,0.611,0.573,�k��,4.3,��
2021/10/02,05:00,0.572,0.848,0.546,1.044,0.715,0.355,0.612,0.577,�k��,6.2,��
2021/10/02,05:10,0.575,0.849,0.546,1.041,0.716,0.353,0.611,0.575,�k��,5.9,��
2021/10/02,05:20,0.573,0.851,0.544,1.044,0.716,0.355,0.610,0.577,�k��,3.7,��
2021/10/02,05:30,0.576,0.852,0.545,1.041,0.718,0.356,0.610,0.578,�k�k��,3.5,��
2021/10/02,05:40,0.574,0.850,0.548,1.042,0.718,0.356,0.610,0.576,�k�k��,4.4,��
2021/10/02,05:50,0.574,0.852,0.545,1.043,0.718,0.354,0.613,0.576,�k�k��,5.2,��
2021/10/02,06:00,0.574,0.852,0.547,1.043,0.718,0.355,0.612,0.576,�k�k��,6.2,��
2021/10/02,06:10,0.574,0.852,0.545,1.044,0.717,0.355,0.614,0.577,�k�k��,4.6,��
2021/10/02,06:20,0.574,0.852,0.548,1.042,0.719,0.355,0.612,0.577,�k�k��,3.8,��
2021/10/02,06:30,0.575,0.850,0.545,1.042,0.719,0.356,0.612,0.575,�k�k��,4.5,��
2021/10/02,06:40,0.574,0.850,0.545,1.042,0.721,0.354,0.612,0.577,�k,4.1,��
2021/10/02,06:50,0.575,0.853,0.547,1.044,0.719,0.356,0.613,0.575,�k,4.3,��
2021/10/02,07:00,0.576,0.851,0.547,1.044,0.718,0.353,0.610,0.576,�k�k��,4.2,��
2021/10/02,07:10,0.576,0.852,0.545,1.044,0.720,0.356,0.611,0.575,�k�k��,4.1,��
2021/10/02,07:20,0.578,0.852,0.548,1.044,0.720,0.355,0.613,0.575,�k�k��,3.6,��
2021/10/02,07:30,0.575,0.852,0.547,1.046,0.720,0.355,0.612,0.575,��,1.7,��
2021/10/02,07:40,0.577,0.853,0.548,1.043,0.721,0.354,0.611,0.576,���k��,2.0,��
2021/10/02,07:50,0.577,0.852,0.549,1.041,0.722,0.355,0.612,0.575,�k��,1.5,��
2021/10/02,08:00,0.575,0.855,0.548,1.043,0.721,0.354,0.612,0.574,-,CALM,��
2021/10/02,08:10,0.576,0.852,0.548,1.045,0.720,0.355,0.613,0.576,�쓌,1.1,��
2021/10/02,08:20,0.576,0.853,0.548,1.044,0.721,0.355,0.612,0.574,�쓌,2.5,��
2021/10/02,08:30,0.574,0.852,0.548,1.045,0.721,0.355,0.613,0.576,��쓌,2.5,��
2021/10/02,08:40,0.573,0.851,0.548,1.045,0.721,0.355,0.613,0.576,�쓌,3.7,��
2021/10/02,08:50,0.576,0.849,0.546,1.047,0.720,0.356,0.613,0.576,�쓌,3.4,��
2021/10/02,09:00,0.576,0.850,0.546,1.045,0.722,0.354,0.613,0.575,���쓌,3.0,��
2021/10/02,09:10,0.575,0.852,0.544,1.044,0.722,0.354,0.612,0.576,��쓌,2.6,��
2021/10/02,09:20,0.576,0.853,0.548,1.044,0.723,0.354,0.613,0.576,�쓌,2.2,��
2021/10/02,09:30,0.575,0.852,0.547,1.047,0.723,0.355,0.613,0.575,�쓌,2.3,��
2021/10/02,09:40,0.575,0.854,0.548,1.046,0.724,0.354,0.614,0.575,���쓌,1.7,��
2021/10/02,09:50,0.578,0.854,0.547,1.046,0.726,0.354,0.613,0.575,��,0.8,��
2021/10/02,10:00,0.576,0.855,0.548,1.048,0.726,0.355,0.616,0.577,�k�k��,1.2,��
2021/10/02,10:10,0.575,0.857,0.548,1.046,0.726,0.355,0.614,0.575,�k,3.1,��
2021/10/02,10:20,0.578,0.856,0.549,1.047,0.727,0.354,0.613,0.575,�k�k��,4.8,��
2021/10/02,10:30,0.578,0.854,0.549,1.047,0.727,0.356,0.615,0.574,�k�k��,4.8,��
2021/10/02,10:40,0.576,0.858,0.550,1.047,0.727,0.357,0.614,0.577,�k,2.9,��
2021/10/02,10:50,0.576,0.857,0.550,1.047,0.729,0.356,0.613,0.576,�k�k��,2.8,��
2021/10/02,11:00,0.577,0.857,0.550,1.046,0.730,0.356,0.615,0.575,���k��,2.5,��
2021/10/02,11:10,0.577,0.857,0.550,1.051,0.729,0.355,0.615,0.575,��,1.4,��
2021/10/02,11:20,0.580,0.859,0.550,1.047,0.729,0.356,0.614,0.575,��,1.9,��
2021/10/02,11:30,0.578,0.857,0.551,1.050,0.731,0.357,0.615,0.576,�k�k��,1.4,��
2021/10/02,11:40,0.580,0.859,0.549,1.049,0.730,0.356,0.615,0.576,�k��,5.9,��
2021/10/02,11:50,0.577,0.859,0.550,1.047,0.730,0.356,0.617,0.575,�k�k��,5.5,��
2021/10/02,12:00,0.578,0.858,0.553,1.048,0.731,0.357,0.615,0.577,�k,2.3,��
2021/10/02,12:10,0.580,0.860,0.552,1.051,0.733,0.358,0.615,0.577,�k�k��,2.0,��
2021/10/02,12:20,0.579,0.860,0.553,1.053,0.732,0.357,0.615,0.578,�k��,6.7,��
2021/10/02,12:30,0.578,0.863,0.554,1.051,0.733,0.357,0.617,0.576,�k��,5.7,��
2021/10/02,12:40,0.582,0.863,0.553,1.050,0.734,0.356,0.618,0.579,���k��,8.8,��
2021/10/02,12:50,0.580,0.863,0.554,1.051,0.731,0.358,0.618,0.577,���k��,9.6,��
2021/10/02,13:00,0.581,0.864,0.554,1.052,0.733,0.358,0.618,0.575,�k��,7.1,��
2021/10/02,13:10,0.582,0.861,0.553,1.050,0.733,0.357,0.619,0.576,�k��,6.8,��
2021/10/02,13:20,0.582,0.862,0.553,1.053,0.734,0.359,0.617,0.578,���k��,5.9,��
2021/10/02,13:30,0.583,0.863,0.553,1.055,0.735,0.357,0.618,0.577,�k��,5.3,��
2021/10/02,13:40,0.582,0.862,0.554,1.055,0.736,0.358,0.619,0.578,�k��,5.0,��
2021/10/02,13:50,0.581,0.862,0.554,1.053,0.738,0.357,0.618,0.577,�k��,4.6,��
2021/10/02,14:00,0.580,0.864,0.554,1.053,0.737,0.358,0.617,0.577,���k��,4.8,��
2021/10/02,14:10,0.583,0.864,0.554,1.053,0.737,0.358,0.618,0.578,���k��,3.8,��
2021/10/02,14:20,0.582,0.862,0.553,1.052,0.735,0.355,0.616,0.577,��,4.3,��
2021/10/02,14:30,0.584,0.865,0.555,1.055,0.737,0.357,0.617,0.578,��,4.1,��
2021/10/02,14:40,0.584,0.864,0.555,1.053,0.738,0.355,0.617,0.577,���k��,3.8,��
2021/10/02,14:50,0.582,0.863,0.554,1.053,0.737,0.358,0.619,0.577,��,3.5,��
2021/10/02,15:00,0.581,0.865,0.554,1.055,0.736,0.357,0.617,0.577,���k��,4.3,��
2021/10/02,15:10,0.584,0.863,0.554,1.054,0.738,0.356,0.618,0.576,���k��,3.7,��
2021/10/02,15:20,0.584,0.864,0.554,1.055,0.737,0.358,0.618,0.577,���k��,3.8,��
2021/10/02,15:30,0.584,0.864,0.554,1.056,0.739,0.357,0.618,0.577,��,4.2,��
2021/10/02,15:40,0.582,0.864,0.553,1.055,0.738,0.358,0.616,0.579,���쐼,3.6,��
2021/10/02,15:50,0.582,0.865,0.556,1.059,0.736,0.358,0.617,0.577,��,3.9,��
2021/10/02,16:00,0.583,0.864,0.554,1.056,0.736,0.358,0.618,0.577,��,3.7,��
2021/10/02,16:10,0.583,0.867,0.554,1.056,0.737,0.359,0.617,0.578,���k��,3.5,��
2021/10/02,16:20,0.582,0.866,0.555,1.057,0.740,0.356,0.617,0.576,�k��,3.4,��
2021/10/02,16:30,0.582,0.868,0.554,1.055,0.738,0.357,0.618,0.577,�k��,3.1,��
2021/10/02,16:40,0.583,0.864,0.555,1.056,0.738,0.356,0.617,0.578,���k��,3.1,��
2021/10/02,16:50,0.582,0.866,0.554,1.058,0.737,0.356,0.617,0.577,���k��,1.7,��
2021/10/02,17:00,0.582,0.866,0.554,1.055,0.739,0.356,0.619,0.579,���k��,2.5,��
2021/10/02,17:10,0.581,0.866,0.552,1.056,0.736,0.357,0.618,0.580,��,3.8,��
2021/10/02,17:20,0.582,0.865,0.554,1.057,0.737,0.359,0.619,0.579,��,3.9,��
2021/10/02,17:30,0.580,0.868,0.554,1.056,0.739,0.358,0.620,0.580,��,3.6,��
2021/10/02,17:40,0.581,0.867,0.553,1.055,0.739,0.358,0.618,0.580,��,3.3,��
2021/10/02,17:50,0.582,0.868,0.555,1.055,0.740,0.358,0.618,0.580,��,5.2,��
2021/10/02,18:00,0.582,0.868,0.557,1.058,0.742,0.357,0.619,0.578,��,6.1,��
2021/10/02,18:10,0.581,0.867,0.558,1.057,0.740,0.358,0.619,0.580,���k��,4.6,��
2021/10/02,18:20,0.583,0.867,0.557,1.057,0.741,0.359,0.620,0.580,�k��,4.4,��
2021/10/02,18:30,0.582,0.870,0.557,1.058,0.740,0.359,0.620,0.580,�k��,3.7,��
2021/10/02,18:40,0.585,0.868,0.555,1.055,0.739,0.357,0.618,0.581,�k��,3.3,��
2021/10/02,18:50,0.583,0.869,0.557,1.057,0.740,0.358,0.620,0.581,�k�k��,3.0,��
2021/10/02,19:00,0.583,0.869,0.557,1.057,0.743,0.358,0.618,0.580,�k�k��,3.4,��
2021/10/02,19:10,0.584,0.867,0.558,1.057,0.741,0.357,0.620,0.579,�k��,4.8,��
2021/10/02,19:20,0.582,0.868,0.556,1.056,0.740,0.358,0.618,0.580,�k��,3.6,��
2021/10/02,19:30,0.583,0.868,0.555,1.056,0.742,0.357,0.617,0.581,���k��,2.8,��
2021/10/02,19:40,0.583,0.869,0.557,1.057,0.741,0.357,0.618,0.581,���k��,5.3,��
2021/10/02,19:50,0.582,0.869,0.556,1.057,0.741,0.357,0.620,0.579,�k��,5.2,��
2021/10/02,20:00,0.582,0.869,0.557,1.058,0.741,0.358,0.619,0.579,�k��,4.5,��
2021/10/02,20:10,0.582,0.868,0.556,1.056,0.743,0.358,0.619,0.580,�k��,3.3,��
2021/10/02,20:20,0.584,0.868,0.557,1.058,0.741,0.359,0.618,0.580,�k��,4.6,��
2021/10/02,20:30,0.583,0.869,0.556,1.058,0.740,0.358,0.617,0.580,�k��,3.3,��
2021/10/02,20:40,0.583,0.869,0.556,1.057,0.742,0.358,0.618,0.582,���k��,3.6,��
2021/10/02,20:50,0.584,0.868,0.557,1.058,0.742,0.356,0.619,0.581,���k��,4.2,��
2021/10/02,21:00,0.581,0.869,0.556,1.057,0.741,0.358,0.617,0.581,���k��,3.8,��
2021/10/02,21:10,0.584,0.869,0.556,1.057,0.742,0.357,0.619,0.580,��,5.3,��
2021/10/02,21:20,0.582,0.867,0.556,1.059,0.741,0.359,0.618,0.579,��,4.8,��
2021/10/02,21:30,0.582,0.867,0.558,1.059,0.743,0.358,0.617,0.578,��,3.2,��
2021/10/02,21:40,0.582,0.869,0.555,1.059,0.740,0.358,0.618,0.579,���쐼,2.3,��
2021/10/02,21:50,0.582,0.868,0.556,1.058,0.740,0.356,0.618,0.579,�쐼,2.0,��
2021/10/02,22:00,0.584,0.868,0.556,1.058,0.744,0.356,0.616,0.580,�쐼,1.2,��
2021/10/02,22:10,0.582,0.867,0.556,1.057,0.742,0.358,0.616,0.580,��,1.5,��
2021/10/02,22:20,0.584,0.868,0.556,1.058,0.743,0.357,0.617,0.582,��,1.1,��
2021/10/02,22:30,0.582,0.868,0.557,1.058,0.744,0.357,0.618,0.579,��,0.9,��
2021/10/02,22:40,0.582,0.870,0.556,1.058,0.742,0.357,0.619,0.582,���k��,0.6,��
2021/10/02,22:50,0.583,0.870,0.556,1.058,0.741,0.358,0.618,0.579,���k��,1.2,��
2021/10/02,23:00,0.583,0.867,0.554,1.056,0.742,0.358,0.618,0.580,��,3.7,��
2021/10/02,23:10,0.583,0.868,0.557,1.058,0.743,0.358,0.616,0.579,���k��,2.0,��
2021/10/02,23:20,0.581,0.867,0.554,1.059,0.743,0.357,0.619,0.579,���k��,1.1,��
2021/10/02,23:30,0.583,0.867,0.556,1.058,0.742,0.358,0.619,0.580,�k��,2.6,��
2021/10/02,23:40,0.583,0.869,0.555,1.056,0.741,0.358,0.618,0.579,���k��,6.6,��
2021/10/02,23:50,0.581,0.869,0.555,1.057,0.743,0.357,0.618,0.579,�k��,4.9,��
